Regional Weather Roundup
Issued by NWS

Home | Current Version | Previous Version | Text Only | Print | Product List | Glossary Off
Versions: 1 2 3 4 5 6 7 8 9 10 11 12 13 14 15 16 17 18 19 20 21 22 23 24 25 26 27 28 29 30 31 32 33 34 35 36 37 38 39 40 41 42 43 44 45 46 47 48 49 50

766
ASUS44 KJAN 222310
RWRMS

MISSISSIPPI HOURLY WEATHER ROUNDUP
NATIONAL WEATHER SERVICE JACKSON MS
600 PM CDT WED OCT 22 2014

NOTE: "FAIR: INDICATES FEW OR NO CLOUDS BELOW 12,000 FEET WITH NO
SIGNIFICANT WEATHER AND/OR OBSTRUCTIONS TO VISIBILITY.

MSZ001>002-007>008-010>013-018>021-025>028-034>036-230000-
NORTHWEST MISSISSIPPI

CITY           SKY/WX    TMP DP  RH WIND       PRES   REMARKS
CLARKSDALE     FAIR      64  45  48 NE8       30.16S
CLEVELAND      FAIR      65  47  50 NE6       30.13S
GREENWOOD      CLEAR     66  44  45 NE7       30.13R
GREENVILLE     CLEAR     69  42  37 NE9       30.12F
GRENADA          N/A    N/A N/A N/A MISG        N/A
OLIVE BRANCH   CLEAR     61  45  55 NE6       30.17S
OXFORD         FAIR      59  45  58 NE5       30.17S
TUNICA         CLEAR     63  43  48 NE7       30.17S
$$

MSZ003>006-009-014>017-022>024-029>033-037>039-230000-
NORTHEAST MISSISSIPPI

CITY           SKY/WX    TMP DP  RH WIND       PRES   REMARKS
COLUMBUS AFB   CLEAR     65  44  47 N7        30.14R
CORINTH        FAIR      63  43  48 N6        30.16S
GOLDN TRIANGLE CLEAR     64  45  48 N9        30.13R
STARKVILLE     FAIR      63  45  51 CALM      30.13R
TUPELO         CLEAR     63  42  46 NE7       30.15R
$$

MSZ040-058-230000-
CENTRAL MISSISSIPPI

CITY           SKY/WX    TMP DP  RH WIND       PRES   REMARKS
JACKSON INTL   CLEAR     70  46  42 NE7       30.09S
JACKSON HAWKNS CLEAR     71  47  42 N6        30.10R
MERIDIAN KEY   CLEAR     66  43  43 N9        30.10R
MERIDIAN NAS   CLEAR     66  44  45 N6        30.11R
RAYMOND        FAIR      66  63  88 MISG      30.10S
VICKSBURG      CLEAR     70  47  43 NE9       30.10S
$$

MSZ059>079-230000-
SOUTH MISSISSIPPI

CITY           SKY/WX    TMP DP  RH WIND       PRES   REMARKS
BROOKHAVEN     FAIR      72  48  43 N6        30.09S
COLUMBIA         N/A    N/A N/A N/A MISG        N/A
HATTIESBURG    CLEAR     73  49  42 N5        30.07R
MCCOMB         CLEAR     74  46  36 NE6       30.06S
NATCHEZ        CLEAR     70  52  52 N7        30.08S
PINE BELT      CLEAR     70  48  46 N5        30.09S
$$

MSZ080>082-230000-
COASTAL MISSISSIPPI

CITY           SKY/WX    TMP DP  RH WIND       PRES   REMARKS
BAY ST LOUIS   CLEAR     73  50  43 N5        30.03R
BILOXI         CLEAR     75  52  44 N5        30.03R
PASCAGOULA     CLEAR     72  51  47 NE5       30.03R
GULFPORT       CLEAR     75  51  43 NE7       30.02R
$$



USA.gov is the U.S. government's official web portal to all federal, state and local government web resources and services.